Hlavní strana
METAR-TAF:

METAR-TAF

Letiště :

Harrisburg-Raleigh Airport

Harrisburg, Illinois, Spojené státy americké

zeměpisná šířka: 37-48-41N, zeměpisná délka: 088-32-57W, výška: 121 m

Aktuální stav počasí

Zpráva byla vytvořena před 17 minutami, v 08:55 UTC
Bezvětří
Teplota 15°C
Vlhkost vzduchu 88%
Tlak 1021 hPa
Viditelnost: 16.1 km
Jasno

METAR: KHSB 300855Z AUTO 00000KT 10SM CLR 15/13 A3014 RMK AO2 T01450126

Čas: 04:12 (09:12 UTC)


TAF: chybějící

Stav a předpovědi počasí z více než 4 000 letišť (zprávy METAR a TAF).

Červené a žluté tečky na mapě představují dostupné meteorologické stanice.

Když kurzor umístíte na tečku, zobrazí se název stanice.

Pak kliknutím zobrazíte stav a předpověď počasí.

Chcete-li změnit mapu, kliknutím na zelené tlačítko se znaménkem +mapu přiblížíte, kliknutím na zelené tlačítko se znaménkem – mapu oddálíte a kliknutím na zelené šipky přejdete na sousední mapy.


METAR-TAF: